Regional Weather Roundup
Issued by NWS

Home | Current Version | Previous Version | Text Only | Print | Product List | Glossary Off
Versions: 1 2 3 4 5 6 7 8 9 10 11 12 13 14 15 16 17 18 19 20 21 22 23 24 25 26 27 28 29 30 31 32 33 34 35 36 37 38 39 40 41 42 43 44 45 46 47 48 49 50

000
ASUS43 KMKX 130121
RWRWI

WISCONSIN REGIONAL WEATHER ROUNDUP
NATIONAL WEATHER SERVICE MILWAUKEE/SULLIVAN WI
800 PM CDT SAT JUL 12 2014

NOTE: "FAIR" INDICATES FEW OR NO CLOUDS BELOW 12,000 FEET WITH NO
SIGNIFICANT WEATHER AND/OR OBSTRUCTIONS TO VISIBILITY.

WIZ001-002-006>008-014>016-023>028-130200-
NORTHWEST WISCONSIN

CITY           SKY/WX    TMP DP  RH WIND       PRES   REMARKS
SUPERIOR ARPT  PTCLDY    70  61  71 W6        29.87S
ASHLAND        CLOUDY    72  62  71 W6        29.87F
HAYWARD        MOCLDY    72  61  68 W6        29.90S
SIREN          CLEAR     70  61  71 W6        29.91S
RICE LAKE      MOCLDY    69  66  89 S3        29.92F
LADYSMITH      CLOUDY    66  65  94 S5        29.93F
EAU CLAIRE     CLOUDY    68  66  93 S5        29.92S
MENOMONIE      MOCLDY    69  67  93 SE5       29.93S
NEW RICHMOND   PTCLDY    71  67  88 SW3       29.93S
OSCEOLA        CLEAR     71  64  77 W3        29.94F
$$

WIZ003>005-009-010-017-018-130200-
NORTH CENTRAL WISCONSIN

CITY           SKY/WX    TMP DP  RH WIND       PRES   REMARKS
WOODRUFF       CLOUDY    64  62  91 SW6       29.92F
RHINELANDER    LGT RAIN  63  62  97 W8        29.94F
EAGLE RIVER    LGT RAIN  63  62  97 SW8       29.91F
LAND O LAKES   CLOUDY    65  60  84 SW6       29.92F
PHILLIPS       CLOUDY    64  64  98 S10       29.92F
TOMAHAWK       LGT RAIN  63  61  94 W6        29.95F
MEDFORD        RAIN      63  63  98 NW5       29.95R
MERRILL        LGT RAIN  64  64  99 CALM      29.91F
$$

WIZ029-030-035-036-043>047-130200-
CENTRAL WISCONSIN

CITY           SKY/WX    TMP DP  RH WIND       PRES   REMARKS
WAUSAU         LGT RAIN  66  63  90 SE5       29.91F
MOSINEE        RAIN      64  64 100 VRB5      29.95F
MARSHFIELD     CLOUDY    65  64  97 CALM      29.92F
STEVENS POINT  LGT RAIN  64  62  94 N6        29.93F
WAUPACA        LGT RAIN  70  63  79 NW9       29.91F
WAUTOMA        LGT RAIN  68  65  90 N9        29.91S
WISC RAPIDS    LGT RAIN  66  64  93 N6        29.93F
CAMP DOUGLAS   NOT AVBL
$$

WIZ011>013-019>022-031-037>040-048>050-130200-
NORTHEAST WISCONSIN

CITY           SKY/WX    TMP DP  RH WIND       PRES   REMARKS
ANTIGO         LGT RAIN  62  62  99 CALM      29.94F
STURGEON BAY   CLOUDY    70  64  83 NW17G23   29.87S
GREEN BAY      CLOUDY    75  69  81 W16G26    29.88S
MANITOWOC      LGT RAIN  67  63  87 CALM      29.87F
APPLETON       LGT RAIN  73  70  88 NW10      29.90
CLINTONVILLE   CLOUDY    68  61  77 N8        29.91R
OSHKOSH        LGT RAIN  73  71  93 NW3       29.87F FOG
$$

WIZ032>034-041-042-053>061-130200-
SOUTHWEST WISCONSIN

CITY           SKY/WX    TMP DP  RH WIND       PRES   REMARKS
LA CROSSE      MOCLDY    69  65  86 CALM      29.91F
SPARTA         CLOUDY    66  64  95 CALM      29.92F
VIROQUA        CLOUDY    65  65 100 NE5       29.93F
BOSCOBEL       CLOUDY    70  66  87 CALM      29.93S
PRAIRIE DU CHI LGT RAIN  67  64  90 NW7       29.91F
PLATTEVILLE    MOCLDY    75  73  95 NW9       29.90R
$$

WIZ056-057-062-063-064-067-068-130200-
SOUTH CENTRAL WISCONSIN

CITY           SKY/WX    TMP DP  RH WIND       PRES   REMARKS
BARABOO/DELLS  CLOUDY    67  64  91 N9        29.89F
LONE ROCK      HVY RAIN  74  69  85 N13G23    29.88F VSB 1
WATERTOWN      CLOUDY    73  73  97 SW3       29.87F
MADISON        LGT RAIN  75  71  87 S6        29.86F FOG
MIDDLETON      CLOUDY    75  74  95 CALM      29.87F
MONROE         CLOUDY    73  72  94 N5        29.86F FOG
JANESVILLE     CLOUDY    77  73  88 CALM      29.86F
$$

WIZ051-052-058>065-066-070>072-130200-
SOUTHEAST WISCONSIN

CITY           SKY/WX    TMP DP  RH WIND       PRES   REMARKS
MILWAUKEE      LGT RAIN  74  71  91 SE6       29.88F FOG
WAUKESHA       CLOUDY    72  70  94 CALM      29.90F FOG
MILWAUKEE/TIMM NOT AVBL
RACINE         LGT RAIN  71  69  93 SE9       29.89F FOG
BURLINGTON     CLOUDY    72  71  97 S5        29.87F FOG
KENOSHA        CLOUDY    75  72  90 E5        29.89F
FOND DU LAC    RAIN      72  70  93 NW3       29.86F FOG
SHEBOYGAN      LGT RAIN  73  71  93 CALM      29.87F FOG
WEST BEND      CLOUDY    72  68  88 CALM      29.89S FOG
JUNEAU         CLOUDY    73  57  56 SE3       29.88F HAZE
$$

LSZ147-162-130200-
LAKE SUPERIOR

STATION/POSITION TIME  TEMP    WIND        PRES    WAVE
                       AIR SEA DIR/SP/G            HT/PER
                 (UTC) (F)     (DEG/KT/KT) (MB)    (FT/S)
W MID LAKE BUOY  0050   42 39  110/  4/  6 1010.9F   0
PORT WING        0000   74     230/  7/ 11 1011.5
SAXON HARBOR     0000             CALM     1011.5F
$$

LMZ867-665-643>646-130200-
LAKE MICHIGAN

STATION/POSITION TIME  TEMP    WIND        PRES    WAVE
                       AIR SEA DIR/SP/G            HT/PER
                 (UTC) (F)     (DEG/KT/KT) (MB)    (FT/S)
N MID LAKE BUOY  0050   57 57  210/ 10/ 14 1010.7F   2/ 3
NORTHPORT PIER   0100   66     250/  3/ 23 1011.5S
KEWAUNEE LAKESHO 0100   54     160/  3/  4 1012.1F
SHEBOYGAN LAKESH 0100   70     180/  6/  7 1011.5F
PORT WASHINGTON  0000   68     190/  2/  5 1012.9F
MILWAUKEE LAKESH 0100          150/ 12/ 13   N/A
S MID LAKE BUOY  0050   64 61  160/ 12/ 12 1012.8F   1/ 4
KENOSHA   LAKESH 0100   68     130/  7/  8   N/A
$$

TC  - TEMPERATURE IN CELSIUS
VSB - VISIBILITY IN STATUTE MILES
WCI - WIND CHILL INDEX
HX  - HEAT INDEX



USA.gov is the U.S. government's official web portal to all federal, state and local government web resources and services.